Other Public Products
Issued by NWS Grand Forks, ND

Home | Current Version | Previous Version | Graphics & Text | Print | Product List | Glossary On
Versions: 1 2 3 4 5 6 7 8 9 10 11 12 13 14 15 16 17 18 19 20 21 22 23 24 25 26 27 28 29 30 31 32 33 34 35 36 37 38 39 40 41 42 43 44 45 46 47 48 49 50
000
FPUS83 KFGF 210810
OPUFGF
PRAIRIE TO PINES WEATHER ROUNDUP
NATIONAL WEATHER SERVICE EASTERN NORTH DAKOTA/GRAND FORKS ND
300 AM CDT MON AUG 21 2017

 **SATELLITE DATA USED TO AUGMENT SKY COVER AT AUTOMATED STATIONS**
 *****  WEATHER ACROSS EASTERN NORTH DAKOTA  *****

CITY           SKY/WX    TMP DP  RH WIND       PRES   REMARKS
GRAND FORKS    FAIR      55  52  89 CALM      29.99F
GRAND FORKS AF FAIR      53  50  90 CALM      30.00F
GRAND CITY NWS NOT AVBL
BUXTON         NOT AVBL
DEVILS LAKE    FAIR      59  49  69 SE3       30.01F
FARGO          FAIR      58  55  90 SW3       30.01F
WAHPETON ARPT  FAIR      59  54  82 CALM      30.01S
$$

 *****  WEATHER ACROSS CENTRAL AND WESTERN NORTH DAKOTA  *****

CITY           SKY/WX    TMP DP  RH WIND       PRES   REMARKS
JAMESTOWN      FAIR      57  53  86 CALM      30.01F
BISMARCK       FAIR      54  49  83 E7        29.97F
MINOT          FAIR      63  50  62 S7        29.95F
MINOT AFB      FAIR      61  49  65 S7        29.94F
GARRISON         N/A     59  51  75 SW8       30.00R
WILLISTON      FAIR      57  45  64 SW5       29.96S
DICKINSON      MOCLDY    60  47  61 E8        30.00S
HETTINGER      FAIR      55  48  77 SE6       29.98F
$$

 *****  OTHER OBSERVATIONS NORTHEAST NORTH DAKOTA  *****

CITY           SKY/WX    TMP DP  RH WIND       PRES   REMARKS
WALHALLA       FAIR      55  55 100 SW5       29.98S
LANGDON        FAIR      54  54 100 S3        30.01S
CAVALIER       FAIR      54  48  82 CALM      29.98F
GRAFTON        FAIR      52  50  93 S3        30.01F
CANDO          FAIR      54  54 100 S3        30.02S
FORT TOTTEN      N/A     59  48  67 S3        29.95S
ROLLA          CLOUDY    54  50  87 SW3       30.01S
RUGBY          CLOUDY    59  54  82 SE3       29.98S
 ***** THE ABOVE OBSERVATIONS ARE NON NWS ARE NOT QUALITY
        CONTROLLED AND MAY MIS-REPORT RAIN FOR SNOW...
$$

 *****  OTHER OBSERVATIONS SOUTHEAST NORTH DAKOTA *****

CITY           SKY/WX    TMP DP  RH WIND       PRES   REMARKS
COOPERSTOWN    FAIR      55  55 100 CALM      30.02F
VALLEY CITY      N/A     57  57 100 S3        30.04F
OAKES          NOT AVBL
GWINNER        MOSUNNY   55  54  94 CALM      30.01F
SHEYENNE NWR     N/A     60  57  89 N5        29.95S
BUFFALO        NOT AVBL
WYNDMERE       NOT AVBL
 ***** THE ABOVE OBSERVATIONS ARE NON NWS ARE NOT QUALITY
       CONTROLLED AND MAY MIS-REPORT RAIN FOR SNOW...
$$

  *****  WEATHER ACROSS NORTHERN MINNESOTA  *****

CITY           SKY/WX    TMP DP  RH WIND       PRES   REMARKS
FLAG ISLAND    FAIR      63  46  55 W5        29.98F HAZE
WARROAD        FAIR      52  48  87 SW7       30.02F
ROSEAU         FAIR      52  46  82 CALM      30.01F
HALLOCK        MOCLDY    50  46  87 SE5       29.99F
THF RVR FALLS  FAIR      50  47  89 CALM      30.03F
HALSTAD        NOT AVBL
FOSSTON        FAIR      52  48  87 CALM      30.03F
BAUDETTE       FAIR      49  46  90 S3        30.02S
WASKISH        FAIR      48  46  93 CALM      30.04S
CROOKSTON      FAIR      54  48  82 SE6       30.02S
$$
  *****  WEATHER ACROSS CENTRAL AND WEST MINNESOTA  *****

CITY           SKY/WX    TMP DP  RH WIND       PRES   REMARKS
BEMIDJI        FAIR      48  46  93 CALM      30.04F
PARK RAPIDS    FAIR      60  54  80 N5        30.04F
WADENA         LGT RAIN  57  55  94 N6        30.00F
DETROIT LAKES  FAIR      59  55  88 CALM      30.04F
MOORHEAD       FAIR      59  55  88 CALM      30.03S
FERGUS FALLS   FAIR      59  57  94 N7        30.01F
ELBOW LAKE     PTSUNNY   61  56  84 NE7       30.00F
MORRIS MN      FAIR      55  55 100 CALM      30.01S
STAPLES        FAIR      55  54  94 N5        30.02F
WHEATON        FAIR      54  52  94 S3        30.03S
$$
  *****  WEATHER ELSEWHERE ACROSS MINNESOTA  *****

CITY           SKY/WX    TMP DP  RH WIND       PRES   REMARKS
DULUTH         FAIR      54  52  93 N5        30.03F
INTRNTL FALLS  FAIR      44  43  96 CALM      30.02F
ELY            FAIR      50  48  93 CALM      30.04S
CLOQUET        FAIR      52  48  87 N3        30.03F
BRAINERD       FAIR      55  53  93 CALM      30.04F
HIBBING        FAIR      47  46  97 CALM      30.04F
ALEXANDRIA     FAIR      59  54  83 NE7       30.04S
SAINT CLOUD    FAIR      57  57 100 CALM      30.03R
MINNEAPOLIS    MOCLDY    69  59  70 NE5       30.02R
$$

  *****  WEATHER ACROSS SOUTH DAKOTA  *****

CITY           SKY/WX    TMP DP  RH WIND       PRES   REMARKS
SIOUX FALLS    CLOUDY    67  64  90 E7        29.99F
BROOKINGS      FAIR      63  58  83 E8        30.01S
WATERTOWN      FAIR      59  54  83 NE3       30.01S
HURON          FAIR      57  56  96 CALM      29.98S
SISSETON         N/A     54  53  97 SW3       30.00F
ABERDEEN       FAIR      53  53 100 CALM      30.01F
MITCHELL       FAIR      60  58  92 NE5       29.97S
PIERRE         FAIR      61  54  77 E5        29.99F
MOBRIDGE       CLOUDY    60  54  80 NE7       30.02R
RAPID CITY     FAIR      61  52  72 SE12      29.98F
$$

  *****  SOME WEATHER IN NEARBY STATES *****

CITY           SKY/WX    TMP DP  RH WIND       PRES   REMARKS
GLASGOW MT     MOCLDY    65  33  30 NW7       29.98F
GREAT FALLS MT FAIR      54  29  38 VRB3      30.11R
CHEYENNE WY    FAIR      57  45  64 W5        30.16F
SCOTTSBLUFF NE FAIR      66  63  90 E5        30.03F
OMAHA NE       MOCLDY    70  61  73 NE25G37   30.01R
DES MOINES IA  TSTM      70  67  90 NW14      30.04R
DAVENPORT IA   FAIR      63  62  97 SE3       30.04R FOG
CHICAGO IL     FAIR      73  69  87 S8        30.02F
EAU CLAIRE WI  MOCLDY    67  64  90 N7        30.01R
LA CROSSE WI   FAIR      71  67  87 E5        30.00S
$$

  *****  SOME NATIONAL WEATHER *****

CITY           SKY/WX    TMP DP  RH WIND       PRES   REMARKS
LA GUARDIA NY  FAIR      77  63  61 CALM      30.15S
RALEIGH NC     FAIR      73  71  93 CALM      30.18S
ATLANTA GA     FAIR      77  70  79 SE3       30.16S
NEW ORLEANS LA FAIR      79  77  94 CALM      30.06S
OKLAHOMA CITY  FAIR      75  71  87 S9        30.04F
ALBUQUERQUE NM CLOUDY    61  59  93 NW10      30.22S
SALT LAKE CITY FAIR      77  38  24 SE8       30.04R
LOS ANGELES CA CLOUDY    68  61  78 NW3       29.96F
BOISE ID       FAIR      66  36  32 CALM      30.02R
SEATTLE WA     FAIR      64  54  69 NE9       30.13S
$$

*** WEATHER ACROSS MANITOBA...SASKATCHEWAN AND ONTARIO ***
                ***ONTARIO***

CITY           SKY/WX    TMP DP  RH WIND       PRES   REMARKS
GERALDTON      PTCLDY    55  55 100 SW3       29.93R
THUNDER BAY    CLEAR     52  50  93 W5        29.98S
SIOUX LOOKOUT  CLEAR     50  45  81 W3        29.98R
TORONTO        MOCLDY    68  57  68 W2        30.09F
BIG TROUT LK   CLEAR     59  48  67 W12G21    29.73R
PICKLE LAKE    NOT AVBL
DRYDEN         CLEAR     55  46  71 SW7       30.00R
KENORA         PTCLDY    61  48  63 SW7       29.99F
$$
                *** MANITOBA***

CITY           SKY/WX    TMP DP  RH WIND       PRES   REMARKS
BRANDON        LGT RAIN  57  52  82 SW8       30.00R
DAUPHIN        CLOUDY    57  50  77 SW8       29.96F
ISLAND LAKE    PTCLDY    59  50  72 SW6       29.78F
PILOT MOUND      N/A     52  48  87 S3          N/A
THE PAS        PTCLDY    54  46  76 SW8       29.84R
THOMPSON       PTCLDY    50  46  87 W5        29.73F
WINNIPEG       MOCLDY    59  46  63 SW5       29.97F
LYNN LAKE      CLEAR     45  45 100 MISG      29.74S
CHURCHILL      FOG       50  50 100 NE12      29.62S VSB 3/8
GILLAM         CLOUDY    61  52  72 W17G29    29.62S
$$
                ***SASKATCHEWAN***

CITY           SKY/WX    TMP DP  RH WIND       PRES   REMARKS
ESTEVAN        CLOUDY    63  45  51 SW5       29.94S
KINDERSLEY     CLOUDY    54  45  71 W7        30.06R
LLOYDMINSTER   CLEAR     48  45  87 W9        30.03R
PRINCE ALBERT  PTCLDY    52  45  76 W3        29.95S
REGINA         CLOUDY    57  41  54 N14       29.95R
YORKTON        LGT RAIN  57  48  72 S6        29.95F


USA.gov is the U.S. government's official web portal to all federal, state and local government web resources and services.